This is the latest recevied weather packets stored in our database for station/object IT9FBN-3. If no packets are shown the sender has not sent any weather packets the latest 10 day(s).
| Time | Temp. | Humidity | Pressure | Rain* | Wind** | Luminosity | Snow |
|---|---|---|---|---|---|---|---|
| 1777522203 | 16.67° C | 51% | 1015.4 hPa | 0 mm | - | - | - |
| 1777521903 | 16.67° C | 51% | 1015.3 hPa | 0 mm | - | - | - |
| 1777521603 | 16.67° C | 51% | 1015.3 hPa | 0 mm | - | - | - |
| 1777521303 | 16.67° C | 51% | 1015.3 hPa | 0 mm | - | - | - |
| 1777521003 | 16.67° C | 51% | 1015.2 hPa | 0 mm | - | - | - |
| 1777520703 | 16.67° C | 51% | 1015.1 hPa | 0 mm | - | - | - |
| 1777520403 | 16.67° C | 51% | 1015.1 hPa | 0 mm | - | - | - |
| 1777520103 | 16.67° C | 51% | 1015.2 hPa | 0 mm | - | - | - |
| 1777519803 | 16.67° C | 51% | 1015.2 hPa | 0 mm | - | - | - |
| 1777519503 | 17.22° C | 50% | 1015.3 hPa | 0 mm | - | - | - |
| 1777519203 | 17.22° C | 51% | 1015.4 hPa | 0 mm | - | - | - |
| 1777518903 | 17.22° C | 51% | 1015.3 hPa | 0 mm | - | - | - |
| 1777518603 | 17.22° C | 50% | 1015.4 hPa | 0 mm | - | - | - |
| 1777518303 | 17.78° C | 48% | 1015.4 hPa | 0 mm | - | - | - |
| 1777518003 | 18.33° C | 43% | 1015.4 hPa | 0 mm | - | - | - |
| 1777517703 | 18.33° C | 41% | 1015.2 hPa | 0 mm | - | - | - |
| 1777517403 | 18.33° C | 41% | 1015.3 hPa | 0 mm | - | - | - |
| 1777517103 | 18.33° C | 41% | 1015.3 hPa | 0 mm | - | - | - |
| 1777516803 | 17.78° C | 42% | 1015.4 hPa | 0 mm | - | - | - |
| 1777516503 | 17.78° C | 45% | 1015.3 hPa | 0 mm | - | - | - |
| 1777516203 | 17.78° C | 46% | 1015.3 hPa | 0 mm | - | - | - |
| 1777515903 | 17.78° C | 47% | 1015.3 hPa | 0 mm | - | - | - |
| 1777515603 | 17.78° C | 48% | 1015.5 hPa | 0 mm | - | - | - |
| 1777515303 | 17.78° C | 47% | 1015.4 hPa | 0 mm | - | - | - |
| 1777515003 | 17.78° C | 48% | 1015.4 hPa | 0 mm | - | - | - |
* Rain latest hour (hover to see other rain measurements)
** Current wind speed in m/s (hover to see current wind gust speed)